Wetbulb
58.50 58.59 58.35 57.17 57.20 57.12 57.08 57.05 57.39 57.43 57.24 56.83 56.46 56.29 56.17 56.06 55.84 55.78 55.78 55.65 55.37 55.03 54.88 54.82 54.80 54.61 54.49 54.34 54.39 54.55 54.59 54.62 54.53 54.56 54.33 53.84 53.60 53.56 53.60 53.81 53.86 53.70 53.58 53.40 53.32 53.31 53.34 53.26 53.33 53.21 52.90 52.49 51.39 50.05 48.86 48.23 48.00 47.82 47.37 46.56 45.53 44.36 43.42 42.71 41.38 40.24 39.36 38.70 38.45
58.05 57.87 57.62 57.44 57.44 57.21 57.05 56.95 57.10 57.16 57.03 56.77 56.44 56.25 56.14 56.05 55.83 55.70 55.62 55.52 55.41 55.16 54.99 54.98 54.90 54.56 54.35 54.29 54.59 54.59 54.49 54.42 54.22 54.16 54.03 53.60 53.70 53.86 54.03 54.08 53.98 53.91 53.79 53.55 53.46 53.56 53.54 53.35 53.34 52.89 52.23 51.43 50.40 49.21 48.14 47.65 47.64 46.88 45.71 44.50 43.79 42.86 41.76 40.68 39.46 38.63 38.11 37.64 37.41
57.71 57.44 57.11 56.96 56.79 56.68 56.63 56.64 56.58 56.44 56.29 56.32 56.24 56.20 56.08 55.98 55.85 55.60 55.51 55.42 55.36 55.20 55.03 54.95 54.67 54.47 54.29 54.28 54.51 54.62 54.52 54.40 54.17 53.99 53.89 53.84 53.87 54.04 54.19 54.21 54.09 54.05 54.14 53.99 53.78 53.77 53.67 53.47 53.21 52.68 51.76 50.70 49.56 48.54 47.56 46.43 46.52 45.59 44.29 43.03 42.65 41.96 40.97 39.73 38.53 38.02 37.74 37.21 36.59
56.90 56.59 56.50 56.34 56.21 56.18 56.23 56.37 56.20 56.02 55.93 55.93 55.91 55.93 55.97 55.91 55.78 55.63 55.52 55.37 55.16 55.03 54.87 54.77 54.62 54.55 54.57 54.51 54.39 54.44 54.58 54.70 54.29 54.01 53.94 54.01 54.00 54.02 54.18 54.26 54.15 54.16 54.19 54.08 53.84 53.55 53.29 53.03 52.64 51.84 50.74 49.57 48.68 47.96 47.28 46.43 45.45 44.39 43.15 41.90 41.35 40.58 39.63 38.67 37.89 37.46 37.04 36.23 35.69
56.23 56.17 56.20 56.08 56.25 56.30 56.20 56.07 55.88 55.75 55.78 55.76 55.78 55.75 55.75 55.76 55.67 55.52 55.29 55.23 55.03 54.94 54.82 54.65 54.82 54.94 54.89 54.59 54.33 54.30 54.48 54.51 54.66 54.45 54.12 53.91 53.95 54.10 54.29 54.33 54.30 54.26 54.13 53.94 53.51 53.09 52.62 52.16 51.55 50.70 49.84 49.13 48.45 47.37 46.21 45.09 43.85 42.79 41.83 41.01 40.23 39.42 38.62 37.74 37.08 36.65 36.26 35.69 34.99
55.63 55.84 55.95 56.24 56.17 56.20 56.07 55.74 55.77 55.81 55.83 55.76 55.56 55.42 55.39 55.46 55.44 55.29 55.20 54.97 54.76 54.66 54.66 54.87 55.03 54.97 54.76 54.45 54.39 54.37 54.43 54.45 54.68 54.53 54.24 54.02 54.13 54.17 54.34 54.31 54.27 54.14 53.92 53.40 52.93 52.32 51.81 51.21 50.52 49.70 48.99 48.23 46.93 45.62 44.59 43.67 42.75 41.61 40.42 39.40 38.63 37.91 37.24 36.49 36.21 35.85 35.36 34.59 33.87
55.35 55.45 55.63 55.92 55.82 55.57 55.43 55.39 55.71 55.95 56.07 55.78 55.35 55.16 55.04 55.20 55.20 55.15 55.05 54.99 54.84 54.76 54.87 55.16 54.93 54.76 54.55 54.33 54.45 54.50 54.50 54.60 54.58 54.42 54.28 54.24 54.30 54.34 54.27 54.24 54.04 53.69 53.25 52.77 52.34 51.77 51.34 50.74 50.09 49.29 48.49 47.55 45.94 44.41 43.21 42.82 41.86 40.42 38.97 37.64 36.97 36.38 35.67 34.80 35.01 34.80 34.19 33.21 32.85
55.43 55.54 55.58 55.59 55.40 55.21 55.16 55.33 55.76 55.81 55.78 55.65 55.20 54.99 54.94 54.98 54.93 54.82 54.84 54.79 54.78 54.83 54.98 55.04 54.65 54.55 54.56 54.61 54.64 54.62 54.57 54.40 54.36 54.34 54.36 54.37 54.26 54.28 54.16 53.91 53.44 53.11 52.62 52.35 51.79 51.22 50.70 50.39 49.69 48.81 47.82 46.79 45.32 43.48 41.96 41.22 40.24 38.99 37.52 36.31 35.84 35.31 34.81 34.52 34.21 34.00 33.56 32.75 32.41
55.57 55.69 55.73 55.75 55.58 55.35 55.27 55.50 55.73 55.61 55.36 55.15 54.87 54.79 54.78 54.85 54.71 54.64 54.64 54.66 54.84 54.98 55.04 54.90 54.66 54.72 54.70 54.82 54.70 54.61 54.52 54.33 54.19 54.21 54.36 54.39 54.26 54.11 53.87 53.44 52.90 52.47 51.99 51.64 51.11 50.58 50.18 50.00 49.39 48.54 47.51 46.30 44.33 42.41 40.77 39.85 38.70 37.55 36.41 35.53 34.94 34.44 34.09 33.94 33.45 33.13 32.93 32.42 31.82
55.49 55.67 55.74 55.66 55.59 55.50 55.49 55.49 55.60 55.49 55.23 54.76 54.45 54.50 54.73 54.89 54.79 54.77 54.82 55.05 55.04 55.01 54.90 54.79 54.77 54.82 54.82 54.74 54.67 54.54 54.45 54.35 54.30 54.29 54.38 54.48 54.21 53.85 53.40 53.01 52.25 51.70 51.31 50.91 50.59 50.28 49.88 49.56 48.72 47.69 46.35 44.56 42.59 41.03 39.88 39.13 37.97 36.94 36.12 35.59 34.63 33.91 33.47 33.30 33.04 32.76 32.50 32.22 31.51
55.76 55.79 55.77 55.54 55.49 55.43 55.42 55.31 55.35 55.36 55.20 54.50 54.23 54.36 54.58 54.77 54.79 54.93 55.11 55.26 54.93 54.63 54.57 54.82 54.87 54.87 54.83 54.78 54.69 54.57 54.50 54.46 54.44 54.42 54.29 54.29 53.93 53.44 52.90 52.34 51.61 51.09 50.65 50.43 50.33 50.06 49.48 48.71 47.42 45.86 44.30 42.64 41.31 40.26 39.41 38.58 37.55 36.57 35.71 35.06 34.29 33.60 33.02 32.73 32.66 32.40 32.12 31.98 31.66
55.92 55.90 55.78 55.51 55.37 55.26 55.19 55.24 55.28 55.08 54.67 54.11 54.10 54.20 54.42 54.59 54.68 54.84 54.96 54.87 54.53 54.46 54.61 55.05 55.08 55.04 54.99 54.94 54.67 54.53 54.41 54.34 54.35 54.27 54.11 53.77 53.41 52.82 52.23 51.57 51.00 50.52 50.21 50.07 49.93 49.52 48.67 47.55 45.95 44.22 42.71 41.47 40.79 39.92 38.91 37.95 36.95 35.96 35.09 34.42 34.02 33.43 32.85 32.57 32.84 32.66 32.38 32.31 31.47
56.01 55.84 55.57 55.37 55.19 55.01 54.93 54.95 54.95 54.53 54.04 53.80 54.00 54.21 54.31 54.41 54.68 54.77 54.79 54.50 54.47 54.61 54.87 55.08 55.24 55.13 55.04 54.89 54.72 54.52 54.45 54.29 54.26 54.14 53.85 53.24 52.70 51.97 51.36 50.79 50.34 50.07 49.71 49.54 49.22 48.63 47.68 46.35 44.80 43.29 41.92 40.83 40.20 39.32 38.40 37.61 36.69 35.79 34.90 34.19 33.70 33.18 32.76 32.71 33.18 33.06 32.64 32.14 31.06
55.90 55.56 55.26 55.06 54.81 54.56 54.44 54.34 54.19 53.98 53.74 53.72 53.94 54.16 54.36 54.47 54.73 54.82 54.75 54.54 54.53 54.72 54.89 55.08 55.24 55.28 55.13 54.84 54.65 54.50 54.29 54.29 54.05 53.68 53.16 52.54 51.89 51.19 50.61 50.17 49.76 49.40 49.18 48.91 48.36 47.64 46.70 45.46 44.00 42.59 41.28 40.11 39.24 38.56 37.94 37.42 36.72 35.88 34.99 34.08 33.40 32.85 32.68 32.87 33.12 32.89 32.29 31.46 30.62
55.39 55.09 54.89 54.63 54.38 54.18 54.09 54.01 53.90 53.90 53.71 53.64 53.89 54.20 54.39 54.54 54.73 54.87 54.78 54.61 54.73 54.90 55.08 55.16 55.21 55.18 55.01 54.78 54.53 54.32 54.11 53.89 53.43 52.78 52.16 51.50 50.97 50.61 50.21 49.89 49.49 49.09 48.64 48.14 47.51 46.66 45.72 44.66 43.31 42.09 40.80 39.44 38.50 37.93 37.44 37.13 36.54 35.86 35.05 34.20 33.50 33.07 32.93 33.10 33.04 32.55 31.86 31.04 30.20
54.89 54.73 54.47 54.32 54.16 54.07 53.91 53.83 53.84 53.77 53.72 53.72 54.00 54.21 54.43 54.53 54.74 54.81 54.74 54.69 54.89 55.02 55.08 55.03 55.00 54.88 54.75 54.55 54.24 53.89 53.50 53.11 52.49 51.81 51.24 50.84 50.52 50.29 50.07 49.71 49.17 48.59 47.96 47.24 46.43 45.64 44.71 43.75 42.59 41.44 40.31 39.15 38.30 37.59 37.05 36.56 35.98 35.32 34.68 34.10 33.74 33.46 33.35 33.26 32.89 32.40 31.83 31.28 30.40
54.66 54.44 54.37 54.15 53.88 53.73 53.63 53.60 53.64 53.66 53.71 53.76 53.94 54.15 54.44 54.58 54.66 54.72 54.74 54.77 54.93 55.01 54.91 54.82 54.87 54.64 54.27 53.99 53.67 53.26 52.77 52.23 51.67 51.28 50.88 50.61 50.43 50.15 49.74 49.39 48.71 48.00 47.19 46.35 45.37 44.31 43.44 42.72 41.77 40.91 39.93 38.98 38.01 37.25 36.58 35.97 35.35 34.69 34.13 33.85 33.73 33.69 33.56 33.51 32.93 32.32 31.79 31.22 30.16
54.51 54.42 54.20 54.01 53.65 53.51 53.35 53.32 53.48 53.55 53.55 53.71 53.93 54.17 54.38 54.51 54.51 54.59 54.71 54.84 54.93 54.82 54.59 54.47 54.42 54.10 53.69 53.19 53.02 52.72 52.34 51.75 51.32 50.97 50.74 50.47 50.24 49.92 49.47 48.93 48.31 47.42 46.52 45.55 44.54 43.49 42.59 41.93 41.09 40.28 39.39 38.34 37.41 36.66 35.91 35.21 34.51 34.00 33.60 33.47 33.53 33.50 33.39 33.22 32.74 32.15 31.50 30.66 29.48
54.46 54.20 54.00 53.70 53.54 53.36 53.36 53.36 53.44 53.55 53.65 53.74 54.00 54.13 54.31 54.37 54.48 54.51 54.60 54.65 54.74 54.57 54.23 53.94 53.77 53.46 53.08 52.65 52.51 52.34 52.17 51.61 51.14 50.83 50.55 50.36 49.91 49.55 49.02 48.44 47.59 46.66 45.64 44.80 43.93 43.12 42.21 41.35 40.42 39.41 38.48 37.47 36.58 35.78 34.99 34.39 33.74 33.36 33.19 33.27 33.17 33.03 32.84 32.49 31.99 31.38 30.56 29.53 28.27
54.35 54.14 53.94 53.72 53.63 53.54 53.50 53.54 53.59 53.64 53.73 53.99 53.97 54.10 54.26 54.36 54.50 54.45 54.32 54.31 54.43 54.23 53.96 53.50 53.19 52.92 52.66 52.44 52.17 51.90 51.77 51.46 50.94 50.62 50.39 50.12 49.63 49.06 48.44 47.59 46.75 45.68 44.62 44.06 43.21 42.38 41.43 40.54 39.57 38.60 37.63 36.66 35.67 34.84 34.14 33.63 33.10 32.87 32.74 32.87 32.54 32.23 31.90 31.39 30.78 30.00 29.16 28.20 27.18
54.30 54.14 53.97 53.87 53.74 53.70 53.61 53.66 53.71 53.82 53.92 54.02 54.07 54.19 54.28 54.39 54.36 54.26 54.14 54.16 54.14 53.93 53.59 53.25 52.89 52.62 52.40 52.13 51.83 51.56 51.37 51.36 50.83 50.47 50.11 49.76 49.14 48.52 47.85 47.06 46.08 44.97 43.92 43.16 42.20 41.29 40.40 39.52 38.66 37.78 36.97 36.10 35.16 34.44 33.88 33.45 32.94 32.66 32.44 32.34 31.82 31.35 30.96 30.42 29.73 28.94 28.18 27.46 26.71
54.46 54.34 54.15 53.97 53.89 53.82 53.75 53.80 53.90 53.96 54.06 54.06 54.21 54.24 54.31 54.32 54.19 54.16 54.11 54.12 53.99 53.68 53.42 53.15 52.88 52.52 52.31 51.96 51.56 51.28 51.14 51.08 50.63 50.19 49.75 49.13 48.38 47.85 47.23 46.44 45.38 44.22 43.08 41.97 40.95 40.06 39.18 38.36 37.71 37.00 36.31 35.67 35.00 34.64 34.39 33.85 33.20 32.57 32.09 31.61 31.01 30.48 30.06 29.63 28.99 28.27 27.62 27.10 26.58
54.56 54.42 54.25 54.08 53.93 53.87 53.84 53.98 54.03 54.05 54.04 54.08 54.19 54.23 54.22 54.15 54.09 54.05 54.09 53.98 53.89 53.53 53.32 53.09 52.88 52.48 52.08 51.76 51.40 51.00 50.59 50.19 49.66 49.22 48.69 47.98 47.27 46.66 46.00 45.21 44.19 43.16 41.97 40.86 39.84 38.83 37.91 37.12 36.76 36.44 36.03 35.58 35.16 34.88 34.66 34.09 33.25 32.37 31.45 30.67 30.09 29.60 29.19 28.80 28.43 27.96 27.49 27.13 26.77
54.62 54.52 54.34 54.24 54.03 53.93 53.96 53.94 53.89 53.86 53.89 53.87 54.03 54.04 54.02 54.00 54.03 54.01 53.99 53.89 53.67 53.40 53.22 53.03 52.64 52.16 51.67 51.34 50.82 50.12 49.37 48.79 48.21 47.63 47.10 46.57 45.95 45.12 44.38 43.47 42.43 41.43 40.51 39.93 39.48 38.95 38.16 37.22 36.64 36.41 36.35 36.10 35.60 35.05 34.37 33.51 32.79 31.89 30.96 30.09 29.40 28.96 28.69 28.38 28.01 27.87 27.72 27.50 27.38
54.54 54.45 54.27 54.13 54.01 53.88 53.84 53.78 53.73 53.72 53.74 53.88 54.04 54.09 54.04 54.04 54.01 53.91 53.76 53.54 53.27 53.00 52.77 52.53 52.08 51.60 51.07 50.46 49.80 49.10 48.35 47.55 46.84 46.26 45.64 45.11 44.59 43.90 43.16 42.29 41.34 40.64 40.38 40.79 41.70 41.70 40.91 39.60 38.35 37.52 36.91 36.43 35.56 34.69 33.84 33.08 32.33 31.63 30.83 30.06 29.34 28.73 28.39 28.04 27.84 27.94 28.13 28.23 28.47
54.54 54.33 54.17 54.01 53.94 53.85 53.72 53.63 53.65 53.74 53.82 53.97 54.10 54.10 54.04 54.02 53.95 53.71 53.44 53.08 52.81 52.49 52.18 51.74 51.30 50.85 50.33 49.67 49.00 48.39 47.68 46.97 46.26 45.46 44.71 44.01 43.49 42.93 42.37 41.76 41.14 40.87 41.26 42.65 43.30 43.30 42.91 42.26 41.23 39.68 38.03 36.60 35.73 34.62 33.61 32.74 32.08 31.55 30.87 30.13 29.54 28.99 28.49 28.29 28.22 28.40 28.87 29.49 29.84
54.32 54.17 53.98 53.97 53.80 53.67 53.61 53.66 53.79 53.87 53.92 54.01 54.05 53.95 54.01 54.02 53.81 53.46 52.94 52.41 52.02 51.75 51.43 51.04 50.60 50.25 49.80 49.09 48.39 47.68 47.01 46.44 45.73 44.94 44.24 43.53 42.87 42.30 41.81 41.51 41.35 41.52 42.39 44.08 44.56 44.43 44.03 43.51 42.55 40.94 38.98 36.72 35.71 34.59 33.45 32.42 31.80 31.27 30.72 30.09 29.63 29.36 29.12 29.02 29.25 29.76 30.19 30.25 30.51
54.05 53.96 53.87 53.84 53.65 53.59 53.64 53.75 53.90 53.95 54.04 54.08 54.06 54.03 53.95 53.75 53.19 52.63 52.07 51.59 51.27 50.97 50.70 50.31 50.13 49.86 49.33 48.53 47.59 46.84 46.17 45.55 44.98 44.41 43.84 43.28 42.74 42.30 41.94 41.90 42.13 42.97 44.11 45.43 45.47 45.25 44.73 43.98 42.88 41.44 39.58 37.21 35.48 34.20 33.20 32.25 31.63 31.03 30.53 30.09 29.76 29.70 29.84 30.11 30.75 31.15 31.24 30.68 30.62
53.89 53.84 53.71 53.59 53.59 53.67 53.78 53.87 54.04 54.16 54.16 54.20 54.03 53.80 53.36 52.80 52.24 51.67 51.28 50.88 50.62 50.33 50.02 49.94 49.79 49.30 48.54 47.51 46.61 45.95 45.33 44.75 44.32 43.88 43.36 42.87 42.56 42.42 42.37 42.54 43.03 44.10 45.38 46.26 46.08 45.56 44.90 43.97 42.88 41.62 40.07 38.19 35.73 34.31 33.31 32.47 31.62 30.98 30.60 30.22 30.13 30.26 30.66 31.41 31.98 32.11 31.88 31.44 31.42
53.81 53.85 53.72 53.68 53.77 53.95 54.04 54.17 54.25 54.19 54.14 53.92 53.45 52.93 52.41 51.94 51.50 51.10 50.75 50.36 50.20 49.98 49.89 49.67 49.08 48.18 47.24 46.43 45.85 45.27 44.73 44.30 43.96 43.57 43.17 42.69 42.45 42.58 42.80 43.29 43.74 44.67 45.64 46.48 46.08 45.47 44.68 43.80 42.76 41.67 40.35 38.75 36.22 34.45 33.14 32.30 31.44 30.95 30.67 30.61 30.78 31.27 31.80 32.42 32.41 32.49 32.56 32.69 32.43
53.96 53.95 53.94 53.84 53.94 53.99 53.98 54.06 54.00 53.83 53.52 53.13 52.67 52.15 51.67 51.15 50.80 50.63 50.37 50.11 49.93 49.75 49.44 48.90 47.96 46.97 46.30 45.94 45.44 44.81 44.32 44.06 43.90 43.60 43.25 42.98 43.10 43.05 43.14 43.50 43.95 44.80 45.60 46.26 45.78 45.16 44.41 43.54 42.67 41.59 40.37 38.92 36.34 34.33 32.86 32.07 31.34 31.02 30.97 31.19 31.74 32.23 32.71 32.85 32.89 32.78 32.77 32.80 32.69
54.11 54.06 53.97 53.81 53.69 53.69 53.64 53.54 53.36 53.05 52.67 52.28 51.80 51.37 50.93 50.64 50.47 50.30 50.16 49.94 49.58 49.08 48.54 47.82 46.93 46.25 45.75 45.39 44.95 44.50 44.14 43.92 43.75 43.63 43.46 43.33 43.10 43.09 43.23 43.54 43.86 44.62 45.38 45.91 45.47 44.85 44.15 43.40 42.41 41.35 40.10 38.65 36.18 34.05 32.58 31.99 31.59 31.61 31.87 32.32 32.77 33.09 33.29 33.52 33.19 32.50 31.91 31.95 31.48
53.99 53.84 53.64 53.44 53.23 53.05 52.95 52.77 52.54 52.19 51.85 51.41 51.02 50.72 50.42 50.21 50.12 49.98 49.80 49.58 49.08 48.45 47.78 47.10 46.39 45.71 45.17 44.72 44.36 44.09 43.96 43.97 43.89 43.98 43.90 43.59 43.32 43.14 43.22 43.45 43.81 44.62 45.46 45.82 45.29 44.71 43.92 43.10 41.99 40.92 39.62 38.15 35.59 33.81 32.81 32.57 32.60 32.76 33.08 33.44 33.46 33.26 32.91 32.51 32.25 31.44 30.42 29.71 29.17
53.62 53.37 53.12 52.83 52.61 52.35 52.21 51.98 51.72 51.46 51.11 50.62 50.36 50.15 49.98 49.80 49.62 49.35 49.22 49.04 48.63 48.05 47.42 46.84 46.07 45.53 44.90 44.32 44.09 44.05 44.05 44.11 43.85 43.63 43.50 43.37 43.23 43.14 43.13 43.18 43.68 44.75 45.60 45.64 45.11 44.36 43.58 42.60 41.56 40.34 39.03 37.62 35.19 33.78 33.26 33.27 33.36 33.56 33.64 33.52 32.84 31.90 30.94 30.28 29.62 29.04 28.30 27.47 27.33
53.23 52.94 52.55 52.25 52.03 51.81 51.55 51.32 51.01 50.75 50.36 50.01 49.79 49.71 49.58 49.40 49.08 48.82 48.55 48.36 47.96 47.42 46.84 46.34 45.85 45.49 45.00 44.60 44.19 44.01 43.84 43.67 43.40 43.32 43.23 43.28 43.10 43.01 42.86 42.95 43.58 44.70 45.42 45.33 44.71 43.93 43.12 42.20 41.10 39.89 38.50 36.83 34.96 34.07 33.82 33.75 33.75 33.60 33.15 32.30 31.09 29.78 28.73 28.17 27.48 26.77 26.18 25.75 25.30
52.75 52.41 52.06 51.76 51.50 51.23 50.92 50.70 50.35 50.04 49.74 49.44 49.22 49.17 48.99 48.82 48.50 48.32 47.96 47.64 47.06 46.38 45.89 45.57 45.40 45.08 44.72 44.55 44.33 44.12 43.90 43.28 43.10 43.11 43.15 43.20 42.97 42.69 42.59 42.71 43.40 44.34 44.97 44.80 44.24 43.51 42.67 41.77 40.63 39.49 38.04 36.05 34.78 34.33 34.18 33.98 33.59 32.90 31.97 30.87 29.60 28.37 27.28 26.66 25.87 25.12 24.51 24.13 23.74
52.37 52.03 51.72 51.40 51.14 50.78 50.48 50.17 49.77 49.42 49.07 48.85 48.72 48.45 48.32 48.05 47.83 47.65 47.51 47.06 46.29 45.71 45.30 45.08 44.81 44.54 44.32 44.14 43.92 43.71 43.50 43.29 43.15 43.02 43.07 43.16 42.88 42.60 42.45 42.62 42.99 43.68 44.14 44.28 43.77 43.10 42.31 41.41 40.38 39.10 37.44 35.26 34.45 34.05 33.92 33.51 32.94 31.97 30.76 29.49 28.17 26.95 26.03 25.45 24.40 23.42 22.89 22.69 23.62
52.16 51.77 51.36 51.05 50.83 50.52 50.21 49.85 49.33 48.93 48.63 48.41 48.27 48.00 47.87 47.55 47.33 47.15 47.01 46.66 45.84 45.21 44.90 44.63 44.36 44.09 43.87 43.65 43.38 43.30 43.27 43.29 43.25 43.07 42.85 42.76 42.66 42.56 42.33 42.23 42.55 42.98 43.36 43.60 43.23 42.64 41.94 41.07 40.11 38.84 37.09 34.87 34.15 33.70 33.35 32.88 32.14 31.30 30.27 29.02 27.56 26.08 24.98 24.45 23.47 22.78 22.85 24.25 27.82
52.06 51.59 51.19 50.75 50.56 50.25 49.89 49.50 49.02 48.58 48.27 48.05 47.82 47.64 47.46 47.24 47.06 46.88 46.84 46.57 45.85 45.22 44.59 44.13 43.73 43.60 43.47 43.43 43.08 42.94 42.99 43.22 43.32 43.15 42.75 42.40 42.62 42.70 42.48 41.98 41.91 42.25 42.68 43.18 42.81 42.22 41.51 40.76 39.91 38.84 37.40 35.26 34.18 33.56 33.15 32.48 31.63 30.77 29.91 28.73 27.15 25.12 23.43 22.72 22.50 22.84 24.15 26.90 31.71
51.92 51.46 50.93 50.58 50.39 50.07 49.71 49.23 48.89 48.49 48.09 47.78 47.46 47.24 47.06 46.97 46.83 46.74 46.57 46.34 45.71 44.99 44.36 43.64 43.33 43.29 43.34 43.31 42.81 42.49 42.39 42.62 42.76 42.74 42.66 42.44 42.75 42.94 42.67 41.79 41.50 41.66 42.13 42.71 42.42 41.92 41.24 40.57 39.81 38.92 37.49 35.30 34.18 33.60 33.07 32.29 31.36 30.52 29.58 28.51 26.94 24.99 23.24 22.17 22.35 23.34 24.94 27.21 31.50
52.04 51.44 50.92 50.56 50.34 49.98 49.54 49.06 48.76 48.45 48.14 47.73 47.33 47.19 47.06 46.92 46.61 46.38 46.07 45.62 45.08 44.50 43.96 43.37 43.10 43.02 43.03 43.00 42.50 42.04 41.81 41.75 41.99 42.23 42.43 42.44 42.58 42.63 42.38 41.54 41.13 41.11 41.35 41.89 41.95 41.65 41.10 40.51 39.84 38.96 37.50 35.23 34.09 33.46 32.96 32.22 31.23 30.28 29.31 28.42 27.18 25.66 24.11 22.89 23.16 23.97 25.10 26.40 28.63
MSLP
1002.20 1002.36 1002.48 1002.68 1002.92 1003.24 1003.64 1004.04 1004.40 1004.72 1005.04 1005.40 1005.80 1006.16 1006.52 1006.92 1007.36 1007.80 1008.24 1008.60 1009.00 1009.40 1009.76 1010.16 1010.48 1010.88 1011.24 1011.60 1011.88 1012.16 1012.48 1012.76 1013.04 1013.32 1013.64 1013.92 1014.20 1014.44 1014.68 1014.96 1015.16 1015.40 1015.68 1015.92 1016.16 1016.36 1016.56 1016.76 1016.96 1017.28 1017.52 1017.76 1018.08 1018.36 1018.60 1018.76 1018.92 1019.08 1019.32 1019.64 1019.88 1020.08 1020.28 1020.48 1020.76 1020.92 1021.08 1021.20 1021.32
1002.28 1002.44 1002.60 1002.92 1003.16 1003.44 1003.80 1004.20 1004.56 1004.92 1005.24 1005.60 1005.92 1006.20 1006.60 1007.00 1007.40 1007.84 1008.28 1008.72 1009.04 1009.40 1009.76 1010.16 1010.52 1010.92 1011.28 1011.64 1011.88 1012.20 1012.48 1012.80 1013.08 1013.40 1013.68 1014.00 1014.20 1014.48 1014.68 1014.96 1015.20 1015.44 1015.64 1015.92 1016.16 1016.40 1016.60 1016.80 1017.04 1017.36 1017.68 1017.96 1018.24 1018.52 1018.76 1018.92 1019.04 1019.24 1019.52 1019.80 1020.04 1020.20 1020.44 1020.68 1020.92 1021.12 1021.20 1021.32 1021.40
1002.40 1002.60 1002.92 1003.16 1003.36 1003.64 1003.92 1004.28 1004.64 1005.04 1005.44 1005.80 1006.08 1006.40 1006.76 1007.12 1007.48 1007.92 1008.32 1008.76 1009.08 1009.44 1009.76 1010.20 1010.60 1010.96 1011.28 1011.64 1011.92 1012.24 1012.56 1012.88 1013.16 1013.48 1013.76 1014.04 1014.24 1014.48 1014.76 1015.04 1015.24 1015.48 1015.72 1015.96 1016.20 1016.44 1016.64 1016.88 1017.12 1017.40 1017.76 1018.08 1018.36 1018.64 1018.92 1019.08 1019.20 1019.40 1019.68 1019.96 1020.16 1020.32 1020.56 1020.84 1021.04 1021.20 1021.28 1021.36 1021.48
1002.60 1002.92 1003.20 1003.36 1003.56 1003.72 1003.92 1004.24 1004.64 1005.08 1005.52 1005.92 1006.24 1006.60 1006.92 1007.24 1007.60 1008.00 1008.40 1008.76 1009.16 1009.48 1009.80 1010.20 1010.60 1010.96 1011.28 1011.64 1012.00 1012.32 1012.60 1012.92 1013.20 1013.48 1013.80 1014.04 1014.32 1014.52 1014.76 1015.04 1015.32 1015.56 1015.76 1016.00 1016.20 1016.48 1016.68 1016.92 1017.20 1017.52 1017.88 1018.20 1018.44 1018.72 1018.96 1019.20 1019.36 1019.64 1019.88 1020.12 1020.32 1020.48 1020.68 1020.96 1021.12 1021.24 1021.32 1021.48 1021.60
1002.92 1003.16 1003.36 1003.52 1003.68 1003.84 1004.04 1004.32 1004.72 1005.20 1005.64 1006.00 1006.36 1006.72 1007.04 1007.36 1007.76 1008.12 1008.48 1008.84 1009.20 1009.56 1009.88 1010.20 1010.60 1010.96 1011.32 1011.68 1012.04 1012.36 1012.72 1013.04 1013.28 1013.56 1013.84 1014.12 1014.32 1014.60 1014.84 1015.12 1015.36 1015.64 1015.84 1016.08 1016.32 1016.52 1016.76 1017.04 1017.40 1017.76 1018.04 1018.28 1018.52 1018.80 1019.04 1019.24 1019.48 1019.76 1020.04 1020.32 1020.48 1020.60 1020.84 1021.04 1021.20 1021.32 1021.44 1021.60 1021.72
1003.08 1003.32 1003.52 1003.68 1003.88 1004.08 1004.32 1004.60 1004.92 1005.32 1005.72 1006.12 1006.44 1006.76 1007.12 1007.48 1007.80 1008.16 1008.52 1008.92 1009.24 1009.60 1009.92 1010.28 1010.64 1011.04 1011.44 1011.76 1012.12 1012.48 1012.76 1013.08 1013.32 1013.64 1013.92 1014.16 1014.40 1014.64 1014.92 1015.20 1015.40 1015.64 1015.92 1016.20 1016.40 1016.60 1016.84 1017.16 1017.56 1017.92 1018.20 1018.44 1018.76 1019.00 1019.20 1019.32 1019.56 1019.84 1020.16 1020.48 1020.68 1020.84 1021.00 1021.16 1021.28 1021.40 1021.48 1021.64 1021.80
1003.20 1003.44 1003.64 1003.92 1004.16 1004.40 1004.68 1004.92 1005.16 1005.48 1005.92 1006.32 1006.60 1006.84 1007.12 1007.48 1007.80 1008.16 1008.52 1008.92 1009.32 1009.68 1010.04 1010.36 1010.72 1011.08 1011.48 1011.84 1012.20 1012.52 1012.80 1013.08 1013.36 1013.64 1013.92 1014.20 1014.48 1014.72 1015.00 1015.24 1015.48 1015.72 1016.00 1016.24 1016.48 1016.68 1016.92 1017.24 1017.64 1018.00 1018.32 1018.60 1018.92 1019.20 1019.40 1019.48 1019.68 1019.96 1020.32 1020.60 1020.88 1021.04 1021.16 1021.28 1021.40 1021.48 1021.64 1021.80 1021.92
1003.32 1003.56 1003.80 1004.16 1004.44 1004.68 1004.92 1005.08 1005.40 1005.76 1006.16 1006.52 1006.84 1007.04 1007.24 1007.52 1007.88 1008.24 1008.60 1009.00 1009.40 1009.76 1010.08 1010.44 1010.80 1011.20 1011.48 1011.84 1012.20 1012.52 1012.84 1013.12 1013.40 1013.68 1013.96 1014.24 1014.52 1014.80 1015.04 1015.32 1015.60 1015.84 1016.08 1016.32 1016.56 1016.80 1017.08 1017.36 1017.76 1018.08 1018.40 1018.68 1019.04 1019.32 1019.56 1019.64 1019.76 1020.04 1020.40 1020.76 1021.04 1021.20 1021.32 1021.44 1021.52 1021.64 1021.76 1021.88 1022.04
1003.68 1003.92 1004.16 1004.48 1004.80 1005.04 1005.20 1005.36 1005.64 1005.92 1006.28 1006.64 1007.04 1007.32 1007.48 1007.76 1008.04 1008.36 1008.72 1009.08 1009.48 1009.76 1010.12 1010.52 1010.92 1011.24 1011.56 1011.88 1012.20 1012.52 1012.80 1013.12 1013.44 1013.72 1014.00 1014.24 1014.56 1014.88 1015.16 1015.44 1015.72 1015.96 1016.20 1016.44 1016.68 1016.92 1017.20 1017.48 1017.88 1018.20 1018.48 1018.76 1019.08 1019.44 1019.68 1019.76 1019.92 1020.20 1020.52 1020.84 1021.12 1021.32 1021.48 1021.56 1021.68 1021.76 1021.88 1021.96 1022.12
1003.92 1004.20 1004.48 1004.88 1005.20 1005.44 1005.60 1005.76 1005.96 1006.16 1006.48 1006.92 1007.32 1007.64 1007.80 1007.96 1008.20 1008.48 1008.80 1009.16 1009.48 1009.92 1010.28 1010.60 1011.00 1011.32 1011.64 1011.96 1012.28 1012.60 1012.88 1013.16 1013.44 1013.76 1014.04 1014.28 1014.60 1014.92 1015.20 1015.48 1015.76 1016.08 1016.36 1016.60 1016.80 1017.04 1017.28 1017.64 1017.96 1018.32 1018.64 1018.92 1019.24 1019.52 1019.76 1019.88 1020.04 1020.32 1020.64 1020.92 1021.20 1021.36 1021.56 1021.76 1021.84 1021.92 1022.00 1022.12 1022.24
1004.12 1004.44 1004.76 1005.12 1005.48 1005.72 1005.96 1006.20 1006.32 1006.56 1006.92 1007.28 1007.64 1007.92 1008.08 1008.20 1008.40 1008.64 1008.92 1009.24 1009.64 1010.04 1010.40 1010.72 1011.04 1011.36 1011.72 1012.04 1012.32 1012.60 1012.88 1013.16 1013.48 1013.76 1014.04 1014.36 1014.64 1015.00 1015.28 1015.60 1015.88 1016.20 1016.48 1016.76 1016.92 1017.16 1017.40 1017.72 1018.12 1018.48 1018.88 1019.20 1019.44 1019.64 1019.80 1020.00 1020.16 1020.40 1020.72 1021.00 1021.20 1021.44 1021.64 1021.84 1021.96 1022.04 1022.16 1022.24 1022.36
1004.32 1004.72 1005.04 1005.36 1005.68 1005.96 1006.20 1006.44 1006.68 1007.00 1007.32 1007.64 1007.92 1008.08 1008.28 1008.44 1008.56 1008.76 1009.08 1009.40 1009.76 1010.20 1010.52 1010.80 1011.08 1011.40 1011.72 1012.04 1012.36 1012.64 1012.92 1013.24 1013.52 1013.84 1014.16 1014.48 1014.80 1015.12 1015.40 1015.72 1016.00 1016.28 1016.60 1016.84 1017.00 1017.24 1017.52 1017.84 1018.20 1018.60 1018.96 1019.28 1019.52 1019.76 1019.92 1020.08 1020.28 1020.52 1020.80 1021.08 1021.28 1021.48 1021.68 1021.92 1022.04 1022.16 1022.24 1022.36 1022.48
1004.60 1005.04 1005.40 1005.76 1006.04 1006.24 1006.48 1006.68 1007.00 1007.32 1007.60 1007.84 1008.04 1008.20 1008.40 1008.60 1008.76 1008.92 1009.20 1009.52 1009.92 1010.32 1010.64 1010.96 1011.20 1011.48 1011.76 1012.08 1012.40 1012.72 1013.04 1013.32 1013.64 1013.96 1014.28 1014.60 1014.96 1015.28 1015.60 1015.88 1016.16 1016.44 1016.68 1016.92 1017.12 1017.32 1017.64 1017.96 1018.32 1018.64 1019.00 1019.32 1019.64 1019.84 1020.04 1020.16 1020.32 1020.56 1020.84 1021.16 1021.32 1021.56 1021.76 1021.92 1022.04 1022.20 1022.32 1022.48 1022.60
1005.00 1005.40 1005.72 1006.00 1006.24 1006.40 1006.60 1006.92 1007.20 1007.48 1007.76 1007.96 1008.20 1008.32 1008.52 1008.76 1008.92 1009.08 1009.32 1009.64 1010.04 1010.40 1010.76 1011.04 1011.32 1011.56 1011.84 1012.16 1012.48 1012.76 1013.08 1013.40 1013.76 1014.04 1014.44 1014.80 1015.12 1015.44 1015.76 1016.04 1016.32 1016.56 1016.80 1017.08 1017.32 1017.48 1017.76 1018.08 1018.44 1018.72 1019.00 1019.36 1019.64 1019.92 1020.08 1020.20 1020.40 1020.60 1020.84 1021.12 1021.32 1021.60 1021.80 1021.92 1022.12 1022.28 1022.44 1022.60 1022.76
1005.36 1005.64 1005.88 1006.04 1006.24 1006.44 1006.68 1006.96 1007.32 1007.64 1007.88 1008.08 1008.32 1008.48 1008.68 1008.88 1009.04 1009.24 1009.48 1009.80 1010.16 1010.48 1010.76 1011.08 1011.44 1011.72 1012.04 1012.32 1012.60 1012.92 1013.24 1013.56 1013.92 1014.28 1014.64 1015.00 1015.32 1015.60 1015.92 1016.16 1016.44 1016.68 1016.92 1017.20 1017.48 1017.68 1017.92 1018.20 1018.52 1018.80 1019.08 1019.36 1019.68 1019.96 1020.20 1020.32 1020.52 1020.72 1020.92 1021.16 1021.36 1021.60 1021.80 1021.96 1022.20 1022.32 1022.52 1022.68 1022.88
1005.48 1005.72 1005.88 1006.04 1006.28 1006.52 1006.76 1007.08 1007.40 1007.72 1008.00 1008.24 1008.48 1008.60 1008.76 1008.96 1009.20 1009.44 1009.64 1009.96 1010.28 1010.60 1010.92 1011.20 1011.56 1011.92 1012.24 1012.52 1012.80 1013.12 1013.44 1013.76 1014.12 1014.48 1014.84 1015.16 1015.48 1015.72 1016.00 1016.28 1016.56 1016.76 1017.04 1017.28 1017.60 1017.92 1018.16 1018.40 1018.68 1018.92 1019.20 1019.48 1019.76 1020.00 1020.24 1020.44 1020.64 1020.88 1021.08 1021.28 1021.48 1021.64 1021.84 1022.04 1022.24 1022.44 1022.60 1022.76 1022.88
1005.48 1005.68 1005.92 1006.12 1006.32 1006.60 1006.92 1007.20 1007.48 1007.84 1008.16 1008.40 1008.60 1008.72 1008.88 1009.04 1009.32 1009.60 1009.84 1010.04 1010.32 1010.68 1011.04 1011.32 1011.68 1012.04 1012.44 1012.76 1013.04 1013.36 1013.68 1014.04 1014.32 1014.64 1014.96 1015.28 1015.56 1015.80 1016.08 1016.36 1016.64 1016.88 1017.08 1017.36 1017.68 1018.04 1018.32 1018.60 1018.88 1019.12 1019.32 1019.60 1019.84 1020.08 1020.32 1020.56 1020.76 1021.00 1021.20 1021.44 1021.64 1021.80 1022.00 1022.20 1022.36 1022.56 1022.72 1022.84 1023.00
1005.48 1005.76 1005.96 1006.20 1006.48 1006.76 1007.04 1007.32 1007.64 1008.00 1008.32 1008.48 1008.64 1008.80 1009.00 1009.20 1009.44 1009.72 1009.96 1010.20 1010.48 1010.80 1011.20 1011.60 1011.92 1012.20 1012.60 1012.92 1013.28 1013.60 1013.88 1014.20 1014.56 1014.84 1015.12 1015.40 1015.64 1015.92 1016.20 1016.48 1016.76 1016.96 1017.20 1017.48 1017.76 1018.08 1018.44 1018.68 1019.00 1019.24 1019.48 1019.76 1020.04 1020.24 1020.48 1020.68 1020.92 1021.16 1021.36 1021.56 1021.76 1022.00 1022.20 1022.36 1022.56 1022.68 1022.80 1022.96 1023.16
1005.52 1005.76 1006.04 1006.32 1006.60 1006.92 1007.20 1007.56 1007.88 1008.16 1008.40 1008.56 1008.76 1008.92 1009.12 1009.32 1009.56 1009.84 1010.16 1010.44 1010.72 1011.04 1011.36 1011.76 1012.16 1012.48 1012.76 1013.08 1013.48 1013.76 1014.08 1014.40 1014.72 1015.04 1015.32 1015.56 1015.80 1016.08 1016.36 1016.64 1016.92 1017.16 1017.40 1017.64 1017.92 1018.20 1018.48 1018.76 1019.04 1019.32 1019.64 1019.92 1020.20 1020.44 1020.68 1020.88 1021.12 1021.32 1021.56 1021.76 1022.00 1022.20 1022.40 1022.56 1022.72 1022.88 1023.00 1023.16 1023.32
1005.60 1005.92 1006.24 1006.52 1006.88 1007.16 1007.48 1007.76 1008.04 1008.28 1008.48 1008.68 1008.84 1009.04 1009.24 1009.48 1009.72 1010.04 1010.36 1010.76 1011.04 1011.32 1011.60 1011.92 1012.32 1012.68 1013.00 1013.32 1013.64 1014.00 1014.32 1014.60 1014.92 1015.20 1015.48 1015.76 1016.00 1016.28 1016.52 1016.80 1017.08 1017.36 1017.64 1017.84 1018.04 1018.32 1018.60 1018.88 1019.16 1019.44 1019.68 1020.00 1020.28 1020.60 1020.84 1021.08 1021.32 1021.56 1021.76 1022.00 1022.20 1022.44 1022.60 1022.76 1022.92 1023.08 1023.24 1023.36 1023.52
1005.88 1006.20 1006.52 1006.80 1007.12 1007.40 1007.68 1007.92 1008.20 1008.36 1008.60 1008.76 1009.00 1009.20 1009.40 1009.68 1009.96 1010.32 1010.64 1010.96 1011.28 1011.56 1011.88 1012.16 1012.48 1012.84 1013.20 1013.52 1013.84 1014.20 1014.52 1014.80 1015.08 1015.32 1015.64 1015.92 1016.20 1016.48 1016.72 1016.96 1017.24 1017.52 1017.76 1018.00 1018.24 1018.48 1018.76 1019.04 1019.32 1019.60 1019.84 1020.08 1020.40 1020.68 1020.96 1021.20 1021.48 1021.68 1021.92 1022.16 1022.40 1022.60 1022.76 1022.92 1023.08 1023.24 1023.44 1023.56 1023.68
1006.20 1006.48 1006.80 1007.08 1007.32 1007.64 1007.88 1008.08 1008.32 1008.48 1008.72 1008.92 1009.16 1009.36 1009.64 1010.00 1010.32 1010.60 1010.92 1011.20 1011.48 1011.80 1012.12 1012.40 1012.72 1013.04 1013.32 1013.68 1014.00 1014.32 1014.68 1015.00 1015.28 1015.56 1015.80 1016.12 1016.44 1016.68 1016.92 1017.20 1017.40 1017.64 1017.92 1018.20 1018.44 1018.68 1018.92 1019.20 1019.48 1019.72 1019.96 1020.24 1020.56 1020.80 1021.04 1021.28 1021.52 1021.80 1022.04 1022.28 1022.52 1022.72 1022.92 1023.04 1023.20 1023.40 1023.60 1023.72 1023.84
1006.48 1006.80 1007.08 1007.32 1007.56 1007.76 1008.04 1008.24 1008.44 1008.64 1008.92 1009.16 1009.40 1009.68 1010.00 1010.32 1010.60 1010.92 1011.20 1011.48 1011.76 1012.04 1012.36 1012.68 1012.96 1013.28 1013.60 1013.88 1014.16 1014.48 1014.80 1015.20 1015.48 1015.76 1016.08 1016.32 1016.60 1016.92 1017.16 1017.36 1017.60 1017.84 1018.08 1018.32 1018.56 1018.80 1019.08 1019.36 1019.64 1019.92 1020.16 1020.36 1020.64 1020.92 1021.12 1021.36 1021.60 1021.88 1022.12 1022.36 1022.60 1022.84 1023.04 1023.24 1023.40 1023.56 1023.76 1023.88 1023.96
1006.76 1007.04 1007.28 1007.52 1007.76 1007.96 1008.20 1008.40 1008.64 1008.88 1009.16 1009.44 1009.72 1010.00 1010.28 1010.60 1010.92 1011.20 1011.44 1011.76 1012.00 1012.32 1012.60 1012.92 1013.24 1013.56 1013.88 1014.16 1014.44 1014.68 1015.00 1015.32 1015.64 1016.00 1016.32 1016.60 1016.84 1017.08 1017.36 1017.64 1017.88 1018.08 1018.32 1018.56 1018.76 1018.92 1019.16 1019.44 1019.76 1020.04 1020.28 1020.48 1020.72 1021.00 1021.28 1021.52 1021.76 1022.00 1022.20 1022.40 1022.64 1022.92 1023.16 1023.36 1023.52 1023.68 1023.80 1023.92 1024.04
1007.00 1007.24 1007.48 1007.72 1007.92 1008.16 1008.40 1008.64 1008.92 1009.20 1009.48 1009.76 1010.00 1010.28 1010.56 1010.88 1011.12 1011.40 1011.72 1012.00 1012.28 1012.56 1012.84 1013.20 1013.52 1013.84 1014.16 1014.44 1014.72 1014.96 1015.20 1015.48 1015.80 1016.12 1016.48 1016.80 1017.04 1017.32 1017.56 1017.84 1018.08 1018.32 1018.56 1018.72 1018.84 1019.00 1019.20 1019.40 1019.68 1019.96 1020.24 1020.56 1020.84 1021.16 1021.44 1021.72 1021.92 1022.04 1022.20 1022.40 1022.60 1022.92 1023.20 1023.48 1023.64 1023.76 1023.88 1023.96 1024.04
1007.20 1007.48 1007.68 1007.96 1008.20 1008.44 1008.72 1008.96 1009.24 1009.52 1009.76 1010.04 1010.28 1010.56 1010.84 1011.12 1011.36 1011.64 1011.92 1012.24 1012.56 1012.84 1013.12 1013.44 1013.76 1014.04 1014.36 1014.68 1014.96 1015.24 1015.48 1015.76 1016.00 1016.28 1016.56 1016.92 1017.20 1017.48 1017.76 1017.96 1018.24 1018.52 1018.72 1018.80 1018.92 1019.12 1019.32 1019.48 1019.64 1019.92 1020.20 1020.60 1020.92 1021.24 1021.56 1021.80 1022.00 1022.16 1022.32 1022.48 1022.64 1022.88 1023.12 1023.40 1023.68 1023.84 1023.92 1024.00 1024.04
1007.48 1007.72 1007.96 1008.20 1008.48 1008.76 1009.04 1009.32 1009.52 1009.80 1010.08 1010.32 1010.52 1010.80 1011.08 1011.32 1011.60 1011.88 1012.20 1012.48 1012.80 1013.08 1013.36 1013.64 1014.00 1014.32 1014.60 1014.88 1015.16 1015.48 1015.76 1016.00 1016.24 1016.48 1016.76 1016.96 1017.24 1017.60 1017.88 1018.12 1018.36 1018.60 1018.76 1018.84 1019.00 1019.16 1019.32 1019.56 1019.76 1020.00 1020.28 1020.60 1020.92 1021.20 1021.48 1021.80 1022.04 1022.28 1022.44 1022.60 1022.76 1022.88 1023.04 1023.28 1023.52 1023.72 1023.92 1024.04 1024.08
1007.76 1008.00 1008.24 1008.52 1008.80 1009.08 1009.36 1009.60 1009.88 1010.08 1010.32 1010.52 1010.76 1011.00 1011.28 1011.56 1011.84 1012.16 1012.48 1012.76 1013.04 1013.32 1013.64 1013.92 1014.20 1014.48 1014.80 1015.08 1015.36 1015.64 1015.92 1016.20 1016.48 1016.72 1016.92 1017.16 1017.40 1017.64 1017.92 1018.20 1018.40 1018.60 1018.76 1018.92 1019.04 1019.20 1019.40 1019.64 1019.88 1020.12 1020.36 1020.64 1020.96 1021.24 1021.52 1021.76 1022.04 1022.28 1022.48 1022.72 1022.84 1022.96 1023.08 1023.20 1023.44 1023.64 1023.88 1024.08 1024.20
1008.08 1008.32 1008.56 1008.84 1009.16 1009.40 1009.64 1009.88 1010.08 1010.32 1010.52 1010.76 1010.96 1011.24 1011.56 1011.84 1012.12 1012.40 1012.68 1012.96 1013.24 1013.52 1013.84 1014.16 1014.44 1014.72 1015.00 1015.32 1015.64 1015.88 1016.16 1016.40 1016.60 1016.88 1017.12 1017.36 1017.56 1017.80 1018.04 1018.24 1018.48 1018.60 1018.76 1018.92 1019.08 1019.28 1019.48 1019.72 1019.92 1020.20 1020.44 1020.68 1020.96 1021.28 1021.56 1021.80 1022.04 1022.28 1022.52 1022.72 1022.88 1023.00 1023.12 1023.20 1023.40 1023.64 1023.84 1024.08 1024.24
1008.36 1008.64 1008.92 1009.12 1009.40 1009.64 1009.92 1010.12 1010.32 1010.52 1010.76 1011.00 1011.24 1011.52 1011.80 1012.08 1012.36 1012.64 1012.92 1013.20 1013.44 1013.68 1013.96 1014.24 1014.56 1014.88 1015.20 1015.52 1015.80 1016.08 1016.36 1016.60 1016.80 1017.04 1017.24 1017.48 1017.72 1017.96 1018.16 1018.32 1018.52 1018.72 1018.84 1019.00 1019.20 1019.36 1019.60 1019.80 1020.04 1020.28 1020.52 1020.76 1021.04 1021.32 1021.60 1021.88 1022.04 1022.24 1022.48 1022.76 1022.92 1023.04 1023.16 1023.32 1023.48 1023.72 1023.92 1024.12 1024.32
1008.68 1008.92 1009.20 1009.40 1009.68 1009.92 1010.16 1010.32 1010.56 1010.76 1011.00 1011.24 1011.52 1011.80 1012.04 1012.32 1012.60 1012.88 1013.12 1013.36 1013.64 1013.92 1014.16 1014.40 1014.76 1015.08 1015.40 1015.68 1015.92 1016.24 1016.52 1016.76 1016.96 1017.16 1017.32 1017.52 1017.76 1018.04 1018.24 1018.48 1018.60 1018.80 1018.96 1019.12 1019.32 1019.52 1019.72 1019.92 1020.20 1020.36 1020.60 1020.84 1021.08 1021.36 1021.64 1021.92 1022.08 1022.28 1022.48 1022.76 1022.96 1023.12 1023.28 1023.44 1023.60 1023.76 1023.96 1024.16 1024.32
1008.96 1009.20 1009.48 1009.72 1009.92 1010.20 1010.40 1010.60 1010.84 1011.04 1011.28 1011.52 1011.76 1012.04 1012.28 1012.56 1012.84 1013.08 1013.32 1013.56 1013.80 1014.08 1014.36 1014.64 1014.96 1015.28 1015.60 1015.84 1016.12 1016.40 1016.64 1016.88 1017.08 1017.28 1017.48 1017.64 1017.92 1018.12 1018.36 1018.56 1018.76 1018.92 1019.08 1019.24 1019.44 1019.64 1019.88 1020.04 1020.28 1020.48 1020.72 1020.96 1021.24 1021.48 1021.76 1021.96 1022.20 1022.44 1022.64 1022.84 1023.04 1023.24 1023.36 1023.48 1023.72 1023.92 1024.08 1024.24 1024.40
1009.32 1009.52 1009.76 1010.00 1010.24 1010.48 1010.68 1010.92 1011.12 1011.32 1011.52 1011.76 1012.00 1012.24 1012.48 1012.76 1013.04 1013.28 1013.56 1013.80 1014.04 1014.28 1014.52 1014.84 1015.08 1015.40 1015.72 1016.00 1016.24 1016.52 1016.76 1016.96 1017.20 1017.36 1017.56 1017.76 1017.96 1018.20 1018.48 1018.68 1018.92 1019.08 1019.24 1019.36 1019.56 1019.76 1020.00 1020.20 1020.44 1020.64 1020.88 1021.08 1021.36 1021.64 1021.88 1022.04 1022.32 1022.52 1022.76 1023.04 1023.24 1023.44 1023.56 1023.68 1023.88 1024.04 1024.24 1024.44 1024.60
1009.64 1009.84 1010.04 1010.28 1010.52 1010.76 1010.96 1011.16 1011.32 1011.52 1011.76 1011.96 1012.24 1012.48 1012.68 1012.92 1013.20 1013.48 1013.76 1014.04 1014.28 1014.48 1014.76 1015.00 1015.24 1015.52 1015.80 1016.04 1016.28 1016.56 1016.84 1017.08 1017.32 1017.52 1017.72 1017.92 1018.08 1018.32 1018.56 1018.76 1019.04 1019.20 1019.36 1019.52 1019.72 1019.92 1020.12 1020.32 1020.52 1020.76 1020.96 1021.20 1021.48 1021.76 1021.96 1022.16 1022.40 1022.68 1022.96 1023.20 1023.48 1023.64 1023.80 1023.92 1024.08 1024.24 1024.40 1024.60 1024.76
1009.84 1010.08 1010.32 1010.56 1010.76 1010.96 1011.20 1011.36 1011.56 1011.76 1011.96 1012.20 1012.48 1012.72 1012.92 1013.16 1013.40 1013.68 1013.96 1014.20 1014.48 1014.76 1015.04 1015.28 1015.48 1015.76 1016.04 1016.28 1016.44 1016.60 1016.88 1017.16 1017.44 1017.64 1017.88 1018.04 1018.20 1018.40 1018.64 1018.92 1019.12 1019.32 1019.48 1019.68 1019.88 1020.04 1020.24 1020.44 1020.60 1020.84 1021.08 1021.36 1021.64 1021.92 1022.08 1022.32 1022.60 1022.88 1023.12 1023.40 1023.64 1023.88 1024.04 1024.20 1024.32 1024.48 1024.64 1024.76 1024.92
1010.04 1010.28 1010.52 1010.76 1010.96 1011.16 1011.36 1011.60 1011.76 1012.00 1012.20 1012.40 1012.68 1012.92 1013.16 1013.44 1013.68 1013.92 1014.16 1014.36 1014.64 1014.96 1015.28 1015.52 1015.76 1016.00 1016.24 1016.48 1016.64 1016.80 1017.00 1017.20 1017.48 1017.72 1017.92 1018.12 1018.32 1018.48 1018.76 1019.00 1019.24 1019.48 1019.64 1019.80 1020.00 1020.20 1020.36 1020.56 1020.76 1020.96 1021.20 1021.48 1021.76 1022.04 1022.28 1022.52 1022.80 1023.08 1023.36 1023.64 1023.88 1024.08 1024.28 1024.44 1024.60 1024.76 1024.92 1025.04 1025.12
1010.16 1010.36 1010.60 1010.92 1011.12 1011.32 1011.56 1011.76 1012.00 1012.20 1012.40 1012.64 1012.92 1013.12 1013.36 1013.64 1013.92 1014.20 1014.36 1014.52 1014.80 1015.12 1015.40 1015.64 1015.92 1016.12 1016.32 1016.56 1016.80 1017.04 1017.20 1017.36 1017.52 1017.76 1018.00 1018.20 1018.40 1018.60 1018.80 1019.08 1019.36 1019.64 1019.80 1020.00 1020.12 1020.32 1020.48 1020.64 1020.88 1021.08 1021.32 1021.64 1021.92 1022.20 1022.44 1022.76 1023.04 1023.32 1023.64 1023.88 1024.12 1024.32 1024.48 1024.60 1024.80 1024.96 1025.08 1025.20 1025.28
1010.20 1010.44 1010.68 1011.00 1011.24 1011.48 1011.76 1011.96 1012.20 1012.40 1012.64 1012.92 1013.16 1013.36 1013.60 1013.84 1014.12 1014.32 1014.56 1014.72 1014.92 1015.20 1015.52 1015.76 1016.04 1016.28 1016.48 1016.72 1016.96 1017.20 1017.40 1017.56 1017.68 1017.88 1018.12 1018.32 1018.52 1018.72 1018.92 1019.20 1019.48 1019.76 1019.96 1020.12 1020.28 1020.44 1020.60 1020.80 1021.04 1021.24 1021.48 1021.76 1022.00 1022.28 1022.56 1022.88 1023.20 1023.48 1023.76 1024.04 1024.32 1024.52 1024.68 1024.80 1024.96 1025.08 1025.20 1025.28 1025.28
1010.32 1010.48 1010.72 1011.04 1011.32 1011.60 1011.88 1012.12 1012.32 1012.60 1012.84 1013.08 1013.32 1013.60 1013.80 1014.04 1014.28 1014.48 1014.72 1014.92 1015.08 1015.32 1015.64 1015.92 1016.20 1016.48 1016.64 1016.88 1017.08 1017.32 1017.60 1017.80 1017.92 1018.08 1018.28 1018.48 1018.68 1018.84 1019.04 1019.28 1019.56 1019.84 1020.04 1020.20 1020.36 1020.56 1020.76 1020.96 1021.20 1021.44 1021.64 1021.84 1022.04 1022.32 1022.60 1022.92 1023.28 1023.60 1023.88 1024.16 1024.44 1024.68 1024.92 1025.04 1025.12 1025.20 1025.32 1025.32 1025.28
1010.48 1010.60 1010.80 1011.04 1011.36 1011.64 1011.92 1012.20 1012.48 1012.76 1013.00 1013.24 1013.48 1013.76 1014.00 1014.20 1014.48 1014.68 1014.92 1015.12 1015.32 1015.56 1015.80 1016.04 1016.36 1016.60 1016.80 1017.04 1017.24 1017.48 1017.76 1018.00 1018.16 1018.32 1018.48 1018.64 1018.84 1019.00 1019.20 1019.36 1019.64 1019.88 1020.12 1020.32 1020.48 1020.64 1020.88 1021.08 1021.32 1021.56 1021.76 1022.00 1022.20 1022.36 1022.64 1022.92 1023.28 1023.64 1023.92 1024.20 1024.48 1024.76 1025.00 1025.20 1025.24 1025.32 1025.36 1025.44 1025.36
1010.64 1010.80 1011.00 1011.20 1011.44 1011.72 1012.00 1012.32 1012.60 1012.88 1013.12 1013.32 1013.64 1013.88 1014.12 1014.32 1014.60 1014.84 1015.08 1015.32 1015.60 1015.80 1016.04 1016.28 1016.52 1016.76 1016.96 1017.20 1017.40 1017.64 1017.88 1018.12 1018.32 1018.52 1018.64 1018.80 1018.96 1019.16 1019.32 1019.48 1019.68 1019.92 1020.16 1020.36 1020.52 1020.76 1020.92 1021.16 1021.36 1021.60 1021.84 1022.04 1022.28 1022.48 1022.68 1022.92 1023.24 1023.60 1023.92 1024.20 1024.44 1024.72 1025.00 1025.20 1025.32 1025.36 1025.40 1025.48 1025.52
Wind_Speed
13 13 12 12 11 11 10 10 10 10 10 11 11 11 11 11 11 10 10 9 9 9 9 9 9 9 11 12 12 12 12 12 12 11 11 11 11 11 12 11 11 11 11 10 10 9 8 8 7 5 4 4 5 5 4 4 5 5 6 6 5 5 6 7 6 6 6 6 4
14 14 14 13 12 11 10 10 10 10 10 10 10 10 11 11 11 11 10 10 9 9 9 9 10 11 12 13 12 12 12 12 12 12 12 12 12 12 12 11 11 11 11 11 9 8 7 8 7 6 5 4 5 5 4 4 5 7 8 7 5 5 5 6 6 6 6 5 4
14 14 13 12 12 11 11 11 11 12 12 10 10 10 10 10 10 10 10 10 10 10 9 9 10 12 13 13 12 11 11 12 12 12 11 11 12 12 12 11 11 11 11 10 9 8 7 8 7 6 6 5 6 6 5 5 6 7 7 6 5 4 5 5 5 5 4 4 4
14 14 13 12 13 13 13 12 13 14 13 11 11 11 10 10 9 9 10 11 11 11 10 10 11 12 12 12 12 12 12 12 12 12 12 11 12 12 12 11 11 11 10 10 9 9 9 8 7 6 6 7 7 6 6 5 6 6 5 5 4 5 5 5 4 4 4 4 4
13 12 11 11 12 13 13 14 15 15 13 11 11 10 10 10 10 10 10 11 10 10 11 12 12 12 12 12 13 13 13 13 12 12 11 11 12 12 12 12 11 11 10 10 10 10 10 9 7 6 5 6 6 6 6 7 7 7 5 4 4 4 4 4 4 4 4 4 4
13 12 11 11 13 13 12 13 15 15 13 11 12 12 12 10 10 11 11 11 11 12 13 14 13 13 13 13 14 13 13 12 12 11 11 12 11 12 12 12 12 11 10 10 11 11 11 10 7 6 5 6 6 6 6 7 8 7 6 5 4 4 4 4 4 4 4 5 5
14 14 14 14 14 14 13 13 13 13 13 12 14 14 14 13 13 13 14 13 12 13 13 13 13 13 13 14 13 13 12 12 11 12 12 12 12 12 12 12 12 11 11 10 10 10 10 9 7 6 6 6 6 6 6 7 7 8 7 6 5 4 4 4 4 4 5 7 7
14 15 15 16 15 15 15 14 13 12 12 11 13 15 16 16 16 16 15 14 13 12 12 12 13 14 14 14 14 13 13 12 12 12 12 12 12 12 12 12 11 11 11 10 10 10 9 8 7 7 6 6 6 6 6 7 8 9 9 8 5 4 4 4 4 4 6 7 8
15 15 16 16 15 15 14 14 14 13 13 13 13 14 15 17 17 17 15 14 13 13 12 12 14 15 15 15 14 13 13 12 12 12 12 12 13 13 12 11 11 11 10 10 11 11 10 8 7 6 6 6 6 6 7 8 10 10 9 8 6 5 5 4 4 5 6 8 8
16 16 16 16 15 14 14 14 14 15 15 15 15 15 15 16 16 15 14 13 13 13 13 13 15 15 15 15 14 13 12 12 12 12 13 13 13 13 12 11 11 11 10 9 10 10 10 8 8 7 7 7 8 8 8 9 10 10 9 7 7 7 7 6 5 6 6 7 8
17 17 16 15 15 15 14 14 14 14 15 15 14 14 14 15 15 14 14 13 14 14 14 14 15 15 15 14 13 12 12 11 12 12 12 12 13 12 12 11 11 11 11 10 9 9 9 8 9 10 9 8 8 8 9 9 11 11 9 7 8 8 8 7 6 6 6 7 9
17 16 16 15 15 15 14 14 14 14 14 14 14 14 14 13 14 14 15 15 15 15 15 15 15 15 14 12 12 12 12 12 12 12 12 12 12 12 12 12 12 11 11 10 9 8 8 9 11 12 11 9 8 7 8 10 11 11 11 9 9 9 8 8 7 6 6 7 8
17 16 16 15 15 15 15 14 14 14 14 14 14 13 13 13 14 15 16 16 15 14 13 14 14 13 13 12 12 12 12 12 12 12 12 12 12 12 12 12 11 11 10 9 8 8 9 11 12 13 12 10 8 7 8 10 11 11 11 10 9 9 8 8 7 7 7 7 8
18 17 17 16 16 15 14 14 13 12 13 14 13 13 12 13 13 14 15 15 15 14 13 13 12 11 11 12 12 12 12 12 12 13 12 12 12 12 12 11 11 10 9 8 9 9 10 11 12 12 12 11 10 9 8 9 10 10 11 10 10 9 9 8 8 8 8 8 8
18 18 17 17 16 15 14 14 12 12 12 13 12 12 12 12 12 13 14 15 14 14 13 12 11 11 11 12 12 12 13 13 13 13 13 13 12 12 12 11 11 10 10 9 9 10 11 12 12 12 12 12 11 10 9 9 9 9 9 10 10 9 9 9 8 8 8 8 9
18 18 18 17 16 15 14 13 11 11 12 12 12 12 12 12 12 13 14 14 13 12 12 12 11 11 11 12 12 13 13 13 13 13 13 13 13 12 12 12 11 11 11 11 11 10 10 11 11 11 12 12 11 10 10 10 9 9 9 9 9 9 9 9 8 8 8 8 9
18 18 17 17 16 15 14 13 11 11 11 12 12 12 12 12 11 12 13 13 12 12 12 13 12 12 12 12 12 12 12 13 13 13 13 13 13 13 12 12 12 11 12 12 12 12 11 11 11 11 11 11 11 11 10 10 10 10 9 9 9 9 9 8 8 8 8 8 9
18 17 16 16 16 15 14 13 13 12 12 12 12 12 12 12 12 12 12 12 13 13 14 14 13 13 13 13 12 11 11 12 12 12 12 12 12 12 12 12 11 11 11 12 13 13 13 12 12 11 11 11 11 10 10 10 10 10 10 9 9 9 8 8 7 7 7 8 8
17 16 16 15 15 15 14 14 14 13 13 13 12 12 13 13 13 13 12 12 13 14 15 14 14 13 13 13 12 11 11 12 12 12 12 12 12 12 12 12 11 11 11 12 12 13 13 13 13 12 12 11 11 10 10 10 10 10 10 10 9 9 8 7 7 7 7 8 8
16 15 15 14 15 14 14 14 14 13 13 12 13 13 14 14 14 14 14 13 14 15 15 15 14 14 13 13 13 12 11 11 12 13 12 12 12 12 12 12 12 11 11 12 12 13 13 13 13 13 12 12 12 11 11 11 10 10 10 10 9 9 8 8 8 7 7 7 7
15 15 14 14 14 14 14 14 13 13 13 13 14 14 14 14 14 14 15 15 15 15 15 15 15 15 14 14 14 12 11 10 11 12 12 12 12 12 12 12 12 11 11 11 12 12 12 12 12 12 12 12 12 12 11 11 11 10 10 9 9 9 9 8 8 8 7 7 7
14 14 14 14 14 14 14 13 13 13 14 14 14 14 14 15 15 15 15 15 15 15 15 15 15 15 14 14 14 13 12 11 11 12 12 12 11 11 11 11 12 12 11 11 12 12 12 12 12 12 12 12 12 12 11 11 11 11 11 10 10 9 9 9 8 8 7 7 7
14 14 13 13 14 14 14 14 14 14 14 14 14 15 15 15 15 15 15 15 15 15 15 14 14 14 14 14 14 14 13 12 12 12 12 12 12 11 11 11 11 11 11 10 11 11 11 12 11 11 11 11 11 12 11 11 11 11 11 11 10 10 9 9 8 8 7 7 7
14 13 13 12 13 14 14 14 14 14 14 14 15 15 15 15 15 15 15 15 15 15 14 13 13 13 13 14 14 14 14 14 14 13 12 12 12 12 11 10 10 9 9 8 10 11 11 11 10 10 10 11 11 11 11 10 10 10 11 11 11 10 9 9 8 8 7 7 7
14 14 13 13 14 14 14 14 14 14 14 14 15 15 15 15 15 15 15 15 15 15 14 14 14 13 13 13 13 13 14 14 14 14 13 13 12 11 11 9 8 7 7 9 13 15 15 13 11 10 10 10 10 10 10 10 10 10 10 11 11 11 10 9 8 8 7 7 7
14 14 14 14 14 14 14 14 14 14 15 15 15 15 15 15 15 15 15 15 15 15 15 14 13 13 12 12 13 13 13 12 13 13 14 13 12 11 10 9 8 6 7 11 16 18 17 16 15 13 11 10 10 10 10 9 10 10 10 10 10 11 11 10 9 8 7 7 6
14 14 14 14 15 15 14 14 14 14 15 15 15 15 15 14 14 15 15 15 15 14 14 13 13 12 12 12 13 13 12 11 12 12 13 13 13 12 10 9 7 7 9 14 18 19 19 18 18 16 13 11 10 10 10 9 10 10 9 9 9 10 11 12 11 10 8 6 5
14 14 15 15 15 14 14 14 14 15 15 15 15 15 15 15 15 15 15 14 14 13 12 11 11 10 10 10 11 12 12 11 11 11 11 12 12 11 10 8 8 9 12 17 19 19 19 19 19 18 16 13 10 10 10 10 10 9 8 8 8 9 10 11 10 10 9 6 5
15 15 15 15 15 14 14 14 15 15 15 15 15 15 15 15 15 15 14 14 14 12 11 9 9 8 9 9 10 11 12 11 11 10 11 11 11 10 10 9 9 11 15 19 19 19 19 19 19 19 17 15 11 9 8 9 9 8 8 7 7 8 9 9 9 9 8 7 7
15 15 15 15 15 15 14 14 15 14 14 14 14 15 15 14 14 14 14 14 13 12 10 9 9 10 10 11 11 11 10 10 10 10 11 12 11 10 10 10 10 12 15 19 19 19 19 19 20 19 18 16 13 10 8 8 8 8 7 7 8 8 9 9 9 9 8 8 8
15 15 15 15 14 14 14 14 14 14 14 13 14 14 14 14 14 13 13 13 12 11 11 12 12 12 12 11 11 10 10 10 10 10 11 11 12 11 10 10 10 12 15 19 19 19 19 20 20 19 19 17 13 10 8 8 7 7 7 7 8 9 9 9 9 9 9 9 8
15 14 14 14 14 13 13 13 13 13 14 14 14 14 14 13 13 12 12 12 12 12 13 13 13 13 12 11 11 11 10 10 10 10 10 11 11 11 11 10 11 12 15 19 19 19 20 20 20 19 18 17 13 10 9 8 8 7 8 8 9 9 8 8 8 8 9 9 8
14 14 14 13 13 13 13 13 13 13 14 14 14 13 13 13 12 12 12 11 11 12 13 13 13 13 13 12 12 11 11 10 10 11 11 11 12 12 11 10 10 12 16 19 19 19 20 20 19 19 19 17 13 10 9 9 8 8 8 8 8 8 7 7 7 8 8 8 7
14 14 14 13 13 13 13 13 13 13 13 13 13 13 13 13 13 12 11 10 10 10 11 12 12 12 12 12 12 12 11 10 10 11 11 12 12 12 11 9 8 12 16 19 19 19 20 20 20 20 19 17 12 10 9 9 9 8 8 8 8 7 7 7 7 7 7 7 7
15 14 14 13 13 13 13 13 13 13 13 13 13 13 13 13 12 12 11 10 10 10 10 10 10 10 10 10 11 11 12 11 11 11 11 11 12 12 11 9 9 13 17 19 19 19 20 20 20 20 18 15 10 9 9 10 10 10 10 9 8 8 7 7 7 7 7 7 7
15 15 14 14 13 13 13 13 13 13 13 13 13 13 12 12 11 11 11 12 12 11 11 11 10 10 10 10 10 10 11 12 12 11 11 11 12 12 11 11 11 14 17 19 19 19 20 20 20 19 16 12 9 8 9 9 9 9 10 9 8 8 8 7 7 7 6 6 7
15 15 15 14 14 13 13 13 13 13 13 13 13 12 12 12 11 11 11 11 12 12 11 11 11 10 10 10 9 9 10 11 12 12 11 11 11 12 12 12 12 14 17 18 19 19 20 20 19 18 15 10 9 8 9 8 8 8 9 9 8 7 7 6 6 6 6 6 7
15 15 15 15 14 14 13 13 13 13 13 12 12 12 12 11 11 10 10 10 11 11 11 11 10 10 10 10 10 10 10 10 11 11 11 11 11 11 12 13 12 13 15 18 19 19 19 19 18 16 13 10 9 9 9 8 8 8 8 7 7 6 6 5 5 5 6 6 9
15 15 15 15 15 15 14 14 13 13 13 12 12 11 11 10 9 8 8 9 10 11 11 11 11 10 10 11 10 10 10 9 10 10 10 10 11 12 13 13 12 13 14 17 18 19 19 19 18 16 14 11 9 9 8 8 8 8 8 7 6 6 5 4 4 4 5 7 11
14 14 15 15 15 15 15 14 14 13 12 12 12 12 11 10 9 9 8 8 9 10 10 11 11 11 11 11 11 11 10 9 9 9 10 10 11 12 13 13 12 13 15 17 18 19 19 18 18 17 14 10 9 8 8 8 9 9 8 7 6 6 5 4 4 4 4 5 9
13 13 14 14 15 15 15 15 14 13 12 12 12 11 10 10 9 9 9 9 9 9 9 10 11 11 11 11 11 11 11 10 9 9 10 11 11 12 12 12 12 13 14 16 18 19 19 19 18 17 14 10 8 7 7 8 9 9 9 7 7 6 5 4 3 3 3 4 5
Wind_Direction
131 132 132 132 131 129 129 129 130 131 132 134 134 134 135 135 136 137 137 137 137 136 136 136 135 136 139 142 142 141 141 142 141 137 133 131 132 133 133 133 134 135 136 136 136 135 133 130 126 122 117 112 105 98 93 95 101 98 95 93 94 93 92 92 92 93 93 92 95
129 130 131 131 129 127 127 127 128 128 129 130 129 130 131 133 134 134 135 136 135 133 132 132 133 135 139 141 140 139 139 140 137 134 132 132 134 134 135 135 136 136 136 136 135 134 131 127 123 119 114 109 103 98 93 91 97 97 95 93 96 94 92 91 94 96 97 96 94
128 129 130 131 130 130 129 129 128 127 126 125 126 126 127 128 129 130 132 133 131 130 129 130 132 135 137 138 137 137 137 137 135 134 134 135 135 135 135 135 135 136 136 135 133 130 127 125 120 117 115 113 108 105 101 92 94 96 96 95 97 97 96 98 99 99 96 91 87
125 126 127 128 129 129 129 128 128 127 126 124 124 124 124 124 125 126 127 128 128 128 128 130 133 135 136 135 135 136 136 136 135 134 134 135 135 135 134 134 135 135 134 132 128 125 121 118 113 112 112 113 111 110 109 104 97 95 95 93 93 96 99 103 102 99 95 91 85
120 121 122 122 122 122 122 123 125 126 125 124 125 125 124 123 123 124 125 127 128 128 129 130 132 134 135 134 135 135 136 136 135 135 134 133 133 133 133 133 133 133 131 128 125 121 116 109 106 105 107 107 106 108 109 109 103 99 94 88 87 92 98 102 100 97 95 93 87
115 113 112 111 111 111 114 118 121 123 124 126 127 127 126 125 126 127 127 126 125 125 126 128 130 132 133 134 135 136 137 137 136 135 133 132 131 131 131 131 131 129 127 125 123 118 113 109 107 105 102 100 98 100 104 107 105 101 97 88 85 86 92 96 98 97 95 93 90
110 109 107 105 107 109 113 115 117 119 122 125 126 127 127 127 127 127 125 124 123 125 127 129 131 133 134 136 138 138 139 138 135 133 131 131 130 130 130 129 128 127 125 124 120 116 113 111 110 109 106 103 101 99 99 104 106 104 100 95 90 87 88 91 95 97 97 96 93
104 103 103 104 105 109 112 114 115 117 119 122 124 125 125 125 124 124 123 122 125 128 129 130 132 134 136 138 139 139 138 136 133 132 130 130 129 129 127 126 125 124 123 121 118 115 112 111 111 112 113 110 107 104 102 104 104 104 102 101 97 91 89 92 94 97 99 98 93
101 99 99 100 102 104 107 110 112 114 115 117 120 121 122 123 123 123 123 124 127 128 129 129 132 134 136 138 138 138 137 135 133 132 131 131 129 128 126 124 122 120 118 116 115 114 113 110 109 110 111 111 112 111 109 107 105 104 104 104 102 98 94 92 93 96 97 97 93
105 103 101 100 102 103 104 105 106 107 109 113 116 119 121 122 122 123 125 126 126 127 128 130 133 135 136 137 137 136 135 133 132 132 132 131 129 127 126 124 122 119 117 116 115 113 112 109 108 106 105 106 111 113 113 110 108 106 106 107 107 104 100 94 94 94 96 97 95
108 107 106 105 107 107 107 106 105 106 109 114 117 120 122 122 123 124 125 125 125 126 129 133 135 136 136 136 135 134 133 132 132 132 131 129 127 126 124 123 121 120 119 119 117 114 112 110 109 108 107 107 110 112 113 111 109 108 108 110 110 108 104 100 97 96 96 98 97
108 107 107 109 112 113 112 111 110 112 116 120 122 123 124 123 124 124 124 124 125 127 131 134 135 136 136 134 133 131 130 130 130 129 128 126 123 122 120 119 119 119 119 119 117 115 114 115 115 114 113 112 113 114 115 114 112 111 112 113 112 110 108 106 103 101 101 101 99
109 109 111 114 117 117 116 115 117 120 123 124 125 125 124 124 124 124 124 124 126 128 131 134 134 134 133 132 131 130 129 129 128 127 124 122 120 118 117 117 117 117 116 116 115 115 116 118 119 119 119 117 116 117 118 118 117 116 117 117 114 112 111 111 110 108 105 103 102
113 116 119 121 121 119 117 117 119 122 124 125 125 125 124 123 124 124 124 124 127 129 131 132 131 130 129 128 128 128 127 127 124 122 119 118 118 117 117 117 116 115 113 111 111 113 116 119 120 121 120 119 118 118 119 118 118 119 119 120 118 117 116 115 114 113 110 108 105
119 122 123 123 121 119 117 118 120 122 124 125 126 125 125 124 124 124 124 125 127 129 130 130 127 124 122 122 123 123 123 122 119 118 117 116 116 117 117 117 115 113 111 110 108 110 113 116 118 119 120 120 120 119 117 114 114 115 117 118 119 119 119 118 118 117 116 115 112
123 124 123 121 120 119 119 120 122 124 125 126 127 126 125 124 124 124 125 127 128 128 127 125 122 118 116 116 117 117 117 117 116 117 117 118 118 118 118 117 116 115 113 111 109 108 109 112 115 117 118 118 118 117 115 113 112 111 112 113 115 116 117 118 118 119 120 119 116
123 122 121 120 120 120 121 122 124 126 127 128 127 127 125 125 125 126 127 128 128 125 122 119 117 115 114 113 114 114 115 116 117 118 120 121 121 121 119 119 118 117 116 114 112 111 110 110 112 113 114 114 114 113 112 111 110 109 109 109 110 111 113 114 116 118 118 117 116
120 120 119 119 119 120 121 123 124 126 128 128 127 126 125 125 125 126 126 125 122 119 116 114 114 114 114 115 115 115 116 118 119 119 121 122 121 120 120 118 117 116 115 114 115 115 115 115 114 113 112 110 110 110 109 108 107 106 106 105 104 104 104 106 108 112 114 115 115
118 118 117 117 118 119 120 122 124 126 127 126 125 124 124 124 124 123 120 116 115 114 114 113 113 113 114 115 116 116 117 118 118 119 119 119 119 118 117 116 114 113 113 114 115 117 118 118 117 115 113 111 109 107 106 104 104 102 101 100 99 97 97 98 99 102 105 108 110
115 115 115 116 117 118 120 122 123 124 124 123 122 122 121 121 119 116 114 112 112 112 113 113 114 114 115 115 115 116 116 117 117 117 117 117 117 117 116 115 114 113 113 114 116 117 118 118 117 116 115 114 112 109 107 105 103 102 101 100 99 98 98 98 97 96 97 100 102
113 114 115 115 117 118 119 121 121 121 120 120 120 119 117 115 112 111 111 112 112 112 113 114 116 117 117 116 116 115 115 115 116 116 116 115 115 115 116 116 116 115 114 115 116 117 117 117 117 116 116 115 114 113 112 110 108 107 105 105 104 103 101 100 98 96 96 96 97
113 114 115 116 117 117 118 118 118 118 118 117 116 113 111 108 108 109 110 112 112 112 113 115 116 118 118 118 117 116 115 113 113 113 113 113 112 113 114 115 115 115 115 116 117 117 116 115 115 115 115 114 114 115 115 115 113 112 110 110 108 106 102 100 98 97 97 97 97
114 115 115 115 115 116 116 116 116 115 114 112 110 108 107 107 109 110 111 112 113 113 114 114 115 115 116 116 116 115 114 112 110 109 108 109 110 110 111 111 112 114 115 117 118 117 116 114 114 114 114 115 115 116 116 116 116 116 115 114 111 107 103 100 100 101 101 101 101
115 115 116 115 115 114 114 114 113 111 110 108 108 108 109 110 111 112 113 113 113 113 113 113 112 112 111 111 112 112 112 112 110 108 107 107 108 109 108 107 107 109 113 117 121 122 121 119 117 117 116 115 115 114 114 115 117 119 119 119 115 111 108 105 105 106 108 108 108
115 115 115 114 114 113 112 111 110 109 109 109 109 110 111 113 114 114 114 113 113 112 112 112 111 110 110 109 109 110 111 112 113 112 111 109 109 109 108 107 107 108 113 120 124 125 125 125 125 123 120 117 115 114 114 115 119 121 123 123 121 118 115 112 112 113 115 116 119
114 113 113 113 111 110 109 109 109 110 110 111 112 113 114 115 115 114 114 112 112 111 111 112 111 111 111 111 111 110 110 111 113 115 115 114 113 111 110 110 111 113 120 127 128 128 127 127 126 125 122 120 120 119 119 120 122 123 124 125 125 125 124 123 123 123 123 124 128
112 111 111 110 109 109 109 110 110 112 113 114 114 115 116 116 115 114 113 112 111 111 110 110 111 111 112 111 111 111 111 112 113 114 116 117 116 116 115 115 117 122 128 132 132 131 130 128 127 125 124 123 123 124 125 126 126 125 125 126 128 129 129 130 130 130 130 129 127
111 110 110 109 109 109 110 112 113 115 116 117 117 116 116 115 114 113 113 112 111 110 110 110 111 111 111 110 111 111 112 112 113 113 114 115 116 117 118 120 123 129 134 135 134 133 131 129 128 127 125 124 123 124 126 128 129 129 129 130 131 132 132 132 132 131 130 126 116
110 110 110 110 111 112 114 115 117 118 118 117 116 115 114 114 114 114 114 113 113 112 112 113 112 110 108 109 110 110 110 112 113 114 114 114 114 116 118 122 126 132 136 137 135 133 132 130 129 128 127 126 125 126 128 130 132 132 133 134 136 136 134 132 130 129 127 122 114
111 111 112 113 115 116 117 119 119 119 118 116 115 114 114 114 115 115 115 114 114 114 115 115 113 111 111 113 112 111 111 113 115 116 117 116 116 118 120 123 128 133 137 138 135 133 132 131 130 129 128 127 126 126 129 132 133 134 135 136 137 136 134 130 129 127 126 124 120
112 113 114 115 116 117 118 118 117 117 116 115 114 114 114 114 115 115 114 114 113 113 112 111 111 112 113 114 113 114 114 116 117 118 119 119 119 120 121 124 128 133 136 137 134 133 132 131 131 130 130 129 127 127 130 132 132 132 133 135 136 134 132 129 128 128 128 127 123
113 113 114 114 115 115 116 115 115 115 114 114 114 113 113 113 113 112 112 112 112 113 113 113 113 114 114 114 114 115 116 118 119 120 121 121 121 121 122 123 127 132 135 136 134 133 132 132 131 131 130 129 126 126 127 128 126 126 125 127 129 130 130 128 127 126 125 124 123
113 113 113 113 113 113 113 114 114 114 114 113 112 112 112 111 111 110 110 111 114 116 117 118 118 119 119 120 119 119 119 119 120 121 121 121 121 122 122 123 127 133 136 136 135 133 133 132 132 131 130 128 126 125 126 125 124 122 120 120 120 119 118 119 119 119 118 117 117
115 114 113 112 112 113 113 113 114 113 112 111 111 111 112 112 112 112 112 113 114 115 116 117 119 120 122 123 123 123 122 121 121 122 122 123 123 123 123 125 129 136 138 137 135 134 134 133 133 131 130 128 125 124 124 123 121 120 118 115 110 105 102 103 105 107 109 111 112
118 117 116 114 114 114 114 114 113 113 112 111 111 112 112 113 113 114 115 114 112 111 111 112 113 115 117 118 120 122 123 123 123 124 125 126 125 124 124 126 130 137 139 137 136 136 135 135 133 131 129 126 123 121 120 119 118 117 115 112 106 101 97 95 97 99 103 108 111
123 121 120 118 117 116 115 115 114 113 113 113 113 113 112 112 112 113 114 113 112 111 111 112 112 113 115 117 118 121 123 125 126 127 127 127 126 125 125 127 131 137 139 138 138 137 137 136 133 130 127 122 120 118 117 116 115 113 111 108 104 101 99 98 99 100 103 107 113
127 126 124 122 120 119 118 117 115 114 114 114 114 114 113 113 112 114 115 115 114 114 114 115 115 117 118 119 119 120 123 126 127 128 128 128 128 127 127 128 132 136 139 140 139 139 137 135 132 129 125 121 120 118 117 115 114 112 109 106 103 101 100 102 102 104 108 112 118
131 129 128 126 125 123 121 119 117 116 115 115 114 114 114 114 114 116 117 117 118 118 118 117 117 117 117 117 116 116 118 121 124 126 127 127 128 128 128 129 132 136 139 141 140 139 137 134 131 128 125 123 123 123 122 120 119 117 114 110 105 100 98 102 106 110 115 123 128
134 132 130 129 128 127 125 122 120 119 117 116 115 114 114 114 115 116 117 116 118 118 118 117 117 116 116 115 114 114 114 115 118 121 123 125 127 129 129 130 132 136 140 142 140 138 136 134 131 129 128 125 126 126 126 125 124 122 120 116 111 104 99 100 108 115 124 131 134
134 132 131 130 130 129 127 125 123 121 120 118 117 116 115 114 113 113 112 111 112 113 114 115 116 116 116 115 114 113 112 111 112 116 120 123 126 129 130 130 133 137 139 141 140 138 136 135 133 132 130 127 128 128 129 129 128 127 126 124 122 117 111 108 112 118 126 132 136
132 131 130 130 130 129 128 126 125 124 122 120 119 118 116 114 113 112 111 109 109 110 111 113 114 115 116 116 115 114 113 112 113 115 120 123 126 129 131 132 134 136 139 141 140 139 138 137 136 135 134 131 130 131 132 133 132 132 133 133 131 129 126 123 119 119 124 129 135